CW0214 Weather Reports


time (UTC)temp
C
wind
direction
speed
KPH
gust
KPH
rain 1hr
cm
rain 24hr
cm
rain mn
cm
humidity
%
barometer
mb
20260509064905 13 359 3.2 12.9 0.08 0.38 0.20 90 1005.4
20260509064405 13 18 4.8 16.1 0.08 0.38 0.20 90 1005.4
20260509062905 13 15 8.0 14.5 0.05 0.33 0.15 90 1005.3
20260509062405 13 29 8.0 16.1 0.03 0.33 0.15 90 1005.2
20260509060905 13 43 3.2 8.0 0.00 0.30 0.13 91 1004.8
20260509060405 13 345 1.6 8.0 0.00 0.30 0.13 91 1004.8
20260509055905 13 219 1.6 8.0 0.00 0.30 0.13 91 1004.7
20260509055405 13 353 1.6 4.8 0.00 0.30 0.13 91 1004.7
20260509054906 13 304 0.0 3.2 0.00 0.30 0.13 91 1004.7
20260509053905 13 16 1.6 11.3 0.00 0.30 0.13 91 1004.8
20260509053405 13 343 1.6 4.8 0.00 0.30 0.13 92 1004.7
20260509052905 12 343 3.2 8.0 0.00 0.30 0.13 92 1004.8
20260509051905 12 347 1.6 4.8 0.00 0.30 0.13 92 1004.9
20260509051404 12 355 0.0 3.2 0.00 0.30 0.13 91 1005.0
20260509050904 13 355 0.0 4.8 0.00 0.30 0.13 91 1004.9
20260509045905 13 96 0.0 4.8 0.00 0.30 0.13 91 1004.9
20260509045405 13 347 3.2 9.7 0.00 0.30 0.13 91 1005.0
20260509044904 13 294 3.2 16.1 0.00 0.30 0.13 91 1004.9
20260509044405 13 302 4.8 8.0 0.10 0.30 0.13 91 1005.0
20260509043905 13 306 3.2 12.9 0.13 0.30 0.13 90 1005.1
20260509043405 13 295 4.8 12.9 0.13 0.30 0.13 90 1005.0
20260509042905 13 266 4.8 12.9 0.13 0.30 0.13 90 1005.1
20260509041905 13 260 3.2 12.9 0.13 0.30 0.13 90 1005.2
20260509041405 13 284 3.2 8.0 0.13 0.30 0.13 89 1005.3
20260509040904 13 285 3.2 11.3 0.13 0.30 0.13 89 1005.4
20260509040405 13 296 1.6 8.0 0.13 0.30 0.13 89 1005.4
20260509035905 13 310 0.0 4.8 0.13 0.30 0.13 89 1005.4
20260509035404 13 307 1.6 8.0 0.13 0.30 0.13 88 1005.5
20260509034905 13 311 3.2 11.3 0.13 0.30 0.13 88 1005.7
20260509034404 13 21 4.8 9.7 0.03 0.20 0.03 87 1005.9
20260509033905 13 324 6.4 12.9 0.00 0.18 0.00 87 1005.8
20260509033405 13 10 0.0 8.0 0.00 0.18 0.00 87 1005.9
20260509032905 13 20 4.8 12.9 0.00 0.18 0.00 87 1005.8
20260509032405 13 322 8.0 12.9 0.00 0.18 0.00 88 1005.9
20260509031905 13 11 0.0 1.6 0.00 0.18 0.00 87 1006.0
20260509031406 13 11 3.2 8.0 0.00 0.18 0.00 87 1006.1
20260509030905 13 11 0.0 8.0 0.00 0.18 0.00 87 1006.2
20260509030405 13 11 1.6 8.0 0.00 0.18 0.00 87 1006.3
20260509025905 13 11 3.2 8.0 0.00 0.18 0.00 87 1006.3
20260509025404 13 11 4.8 12.9 0.00 0.18 0.00 87 1006.3
20260509024404 12 352 4.8 12.9 0.00 0.18 0.00 87 1006.4
20260509023905 12 5 3.2 9.7 0.00 0.18 0.00 87 1006.3
20260509023404 12 355 0.0 4.8 0.00 0.18 0.00 87 1006.4
20260509022905 12 26 3.2 12.9 0.00 0.18 0.00 87 1006.3
20260509022405 13 23 1.6 14.5 0.00 0.18 0.00 87 1006.3
20260509021905 13 355 8.0 14.5 0.00 0.18 0.00 87 1006.5
20260509021405 13 21 4.8 19.3 0.00 0.18 0.00 87 1006.5
20260509020906 13 18 4.8 12.9 0.00 0.18 0.00 87 1006.7
20260509020405 13 14 6.4 14.5 0.00 0.18 0.00 87 1006.7
20260509015905 13 0 4.8 12.9 0.00 0.18 0.00 87 1006.8
20260509015405 13 25 6.4 9.7 0.00 0.18 0.00 87 1006.9
20260509014904 13 24 3.2 11.3 0.00 0.18 0.00 86 1006.9
20260509014404 13 26 8.0 12.9 0.00 0.18 0.00 86 1007.0
20260509013905 13 352 3.2 11.3 0.00 0.18 0.00 86 1007.0
20260509013405 13 34 0.0 9.7 0.00 0.18 0.00 86 1007.1
20260509012905 13 10 3.2 11.3 0.00 0.18 0.00 86 1007.2
20260509011905 13 4 4.8 12.9 0.00 0.18 0.00 86 1007.2
20260509011404 13 34 6.4 14.5 0.00 0.18 0.00 86 1007.3
20260509005905 13 22 8.0 16.1 0.00 0.18 0.00 86 1007.4
20260509005405 13 16 6.4 14.5 0.00 0.18 0.00 86 1007.5
20260509004905 13 22 8.0 14.5 0.00 0.18 0.00 86 1007.6
20260509004404 13 16 3.2 14.5 0.00 0.18 0.00 86 1007.5
20260509003404 13 356 9.7 19.3 0.00 0.18 0.00 87 1007.5
20260509002905 13 45 6.4 14.5 0.00 0.18 0.00 88 1007.6
20260509002405 13 353 6.4 14.5 0.00 0.18 0.00 88 1007.7
20260509001404 13 22 11.3 19.3 0.00 0.18 0.00 88 1007.6
20260509000905 13 351 8.0 20.9 0.00 0.18 0.00 88 1007.7
20260509000405 13 4 9.7 20.9 0.00 0.18 0.00 87 1007.8
20260508235404 13 11 9.7 20.9 0.00 0.18 0.00 88 1007.9
20260508234904 13 32 8.0 19.3 0.00 0.18 0.00 88 1007.8
20260508233905 13 20 9.7 19.3 0.00 0.18 0.00 87 1007.7
20260508233405 13 8 9.7 19.3 0.00 0.18 0.00 87 1007.8
20260508232904 13 30 9.7 19.3 0.00 0.18 0.00 87 1007.8
20260508232405 13 15 8.0 20.9 0.00 0.18 0.00 86 1007.7
20260508231905 13 54 8.0 19.3 0.00 0.18 0.00 86 1007.7
20260508230905 13 2 8.0 22.5 0.00 0.18 0.00 86 1007.5
20260508230405 13 16 9.7 14.5 0.00 0.18 0.00 87 1007.7
20260508225904 13 355 8.0 14.5 0.00 0.18 0.18 88 1008.0
20260508225405 13 9 6.4 16.1 0.03 0.18 0.18 88 1008.0
20260508224905 13 332 4.8 16.1 0.03 0.18 0.18 88 1007.9
20260508224405 13 50 4.8 12.9 0.03 0.18 0.18 89 1007.9
20260508223904 13 12 1.6 12.9 0.03 0.18 0.18 89 1007.6
20260508223406 13 304 4.8 14.5 0.03 0.18 0.18 89 1007.6
20260508222905 13 313 1.6 9.7 0.03 0.18 0.18 89 1007.3
20260508222405 13 333 3.2 9.7 0.05 0.18 0.18 88 1007.3
20260508221905 13 28 4.8 16.1 0.05 0.18 0.18 89 1007.9
20260508221404 14 11 6.4 12.9 0.05 0.18 0.18 89 1008.2
20260508220905 14 14 11.3 16.1 0.05 0.18 0.18 88 1008.3
20260508220405 14 20 9.7 20.9 0.05 0.18 0.18 88 1008.4
20260508215404 14 46 6.4 11.3 0.03 0.15 0.15 89 1008.5
20260508214405 14 21 0.0 4.8 0.03 0.15 0.15 89 1008.7
20260508213904 14 21 3.2 9.7 0.03 0.15 0.15 88 1008.7
20260508213404 14 21 6.4 12.9 0.03 0.15 0.15 88 1008.8
20260508212904 14 24 8.0 19.3 0.03 0.15 0.15 88 1008.7
20260508212404 14 13 9.7 16.1 0.00 0.15 0.15 89 1008.8
20260508210404 14 45 8.0 12.9 0.03 0.15 0.15 88 1008.8
20260508205905 14 84 0.0 1.6 0.03 0.15 0.15 88 1008.7
20260508204904 14 84 0.0 0.0 0.03 0.15 0.15 88 1008.5
20260508203904 14 84 0.0 0.0 0.15 0.15 0.15 87 1008.3
20260508202904 14 82 6.4 9.7 0.15 0.15 0.15 87 1008.1
20260508201904 14 39 3.2 12.9 0.15 0.15 0.15 86 1008.1
20260508201405 14 35 3.2 11.3 0.15 0.15 0.15 85 1008.0
20260508200405 15 54 3.2 9.7 0.13 0.13 0.13 85 1007.8
20260508195905 15 44 1.6 12.9 0.13 0.13 0.13 84 1007.8
20260508195405 15 65 3.2 8.0 0.13 0.13 0.13 82 1007.8
20260508194904 15 46 1.6 9.7 0.13 0.13 0.13 81 1007.8
20260508194405 15 37 4.8 14.5 0.10 0.10 0.10 78 1007.9
20260508193905 16 12 11.3 29.0 0.00 0.00 0.00 75 1008.2
20260508193404 17 34 20.9 40.2 0.00 0.00 0.00 70 1007.9
20260508192905 17 58 12.9 24.1 0.00 0.00 0.00 66 1007.8
20260508192405 18 30 8.0 9.7 0.00 0.00 0.00 62 1007.4
20260508191906 18 30 0.0 3.2 0.00 0.00 0.00 60 1007.2
20260508191406 18 30 0.0 0.0 0.00 0.00 0.00 59 1007.0
20260508190906 18 30 0.0 0.0 0.00 0.00 0.00 59 1007.0
20260508190405 18 30 0.0 0.0 0.00 0.00 0.00 59 1006.9
20260508185906 18 30 0.0 0.0 0.00 0.00 0.00 58 1006.9
20260508184406 18 30 0.0 0.0 0.00 0.00 0.00 60 1006.9
20260508183906 18 29 0.0 1.6 0.00 0.00 0.00 59 1007.1
20260508183405 18 29 3.2 9.7 0.00 0.00 0.00 58 1007.2
20260508182905 19 28 4.8 11.3 0.00 0.00 0.00 56 1007.5
20260508182405 19 42 3.2 12.9 0.00 0.00 0.00 54 1007.3
20260508181905 19 45 3.2 11.3 0.00 0.00 0.00 50 1007.3
20260508181406 20 50 0.0 4.8 0.00 0.00 0.00 49 1007.2
20260508180405 20 103 4.8 9.7 0.00 0.00 0.00 47 1007.0
20260508175905 20 27 1.6 9.7 0.00 0.00 0.00 46 1007.0
20260508175406 20 27 0.0 9.7 0.00 0.00 0.00 46 1007.0
20260508174907 20 27 4.8 9.7 0.00 0.00 0.00 46 1007.1
20260508172405 20 36 0.0 0.0 0.00 0.00 0.00 46 1007.2
20260508171906 20 61 0.0 9.7 0.00 0.00 0.00 46 1007.3
20260508171405 20 28 0.0 9.7 0.00 0.00 0.00 45 1007.2
20260508170905 20 17 4.8 16.1 0.00 0.00 0.00 44 1007.3
20260508170405 20 60 8.0 12.9 0.00 0.00 0.00 44 1007.2
20260508165926 20 40 1.6 9.7 0.00 0.00 0.00 45 1007.3
20260508165417 20 40 1.6 9.7 0.00 0.00 0.00 44 1007.3
20260508164905 20 9 1.6 8.0 0.00 0.00 0.00 44 1007.4
20260508164404 20 13 3.2 12.9 0.00 0.00 0.00 44 1007.4
20260508163905 20 36 6.4 11.3 0.00 0.00 0.00 44 1007.5
20260508162905 20 49 0.0 1.6 0.00 0.00 0.00 44 1007.6
20260508161405 20 15 1.6 11.3 0.00 0.00 0.00 44 1007.8
20260508160905 20 30 0.0 11.3 0.00 0.00 0.00 45 1007.8
20260508160405 20 30 4.8 12.9 0.00 0.00 0.00 43 1007.9
20260508155405 20 71 0.0 1.6 0.00 0.00 0.00 44 1007.9
20260508154905 20 79 1.6 8.0 0.00 0.00 0.00 44 1008.0
20260508153904 20 54 8.0 12.9 0.00 0.00 0.00 44 1008.0
20260508153405 20 46 1.6 12.9 0.00 0.00 0.00 44 1008.0
20260508152906 20 65 6.4 14.5 0.00 0.00 0.00 44 1008.0
20260508151905 20 59 1.6 9.7 0.00 0.00 0.00 44 1008.2
20260508151405 20 19 4.8 11.3 0.00 0.00 0.00 43 1008.4
20260508150905 20 5 0.0 4.8 0.00 0.00 0.00 44 1008.4
20260508150406 20 52 1.6 11.3 0.00 0.00 0.00 44 1008.6
20260508145905 20 26 3.2 9.7 0.00 0.00 0.00 44 1008.8
20260508144904 20 37 3.2 16.1 0.00 0.00 0.00 43 1008.9
20260508144405 20 22 9.7 16.1 0.00 0.00 0.00 43 1009.0
20260508143905 21 42 3.2 12.9 0.00 0.00 0.00 44 1009.0
20260508143405 20 30 8.0 12.9 0.00 0.00 0.00 45 1009.1
20260508142906 20 26 1.6 19.3 0.00 0.00 0.00 44 1009.1
20260508142404 20 12 9.7 16.1 0.00 0.00 0.00 44 1009.1
20260508141905 20 11 3.2 9.7 0.00 0.00 0.00 43 1009.2
20260508141405 20 52 6.4 16.1 0.00 0.00 0.00 45 1009.3
20260508140905 20 32 4.8 16.1 0.00 0.00 0.00 45 1009.3
20260508140405 20 31 6.4 19.3 0.00 0.00 0.00 46 1009.3
20260508135905 20 83 8.0 19.3 0.00 0.00 0.00 46 1009.2
20260508134905 20 11 8.0 12.9 0.00 0.00 0.00 45 1009.4
20260508134405 20 46 6.4 14.5 0.00 0.00 0.00 47 1009.5
20260508133905 20 35 6.4 12.9 0.00 0.00 0.00 45 1009.5
20260508133405 20 64 6.4 14.5 0.00 0.00 0.00 46 1009.7
20260508132905 20 25 4.8 19.3 0.00 0.00 0.00 47 1009.7
20260508132405 19 64 8.0 14.5 0.00 0.00 0.00 48 1009.9
20260508131904 19 60 11.3 19.3 0.00 0.00 0.00 48 1009.9
20260508131405 19 42 8.0 19.3 0.00 0.00 0.00 48 1010.0
20260508130905 19 34 8.0 14.5 0.00 0.00 0.00 48 1010.0
20260508130405 19 23 12.9 19.3 0.00 0.00 0.00 48 1010.1
20260508125905 19 29 4.8 20.9 0.00 0.00 0.00 48 1010.1
20260508125405 19 29 4.8 12.9 0.00 0.00 0.00 48 1010.0
20260508124905 19 351 3.2 16.1 0.00 0.00 0.00 48 1010.1
20260508124406 18 55 1.6 16.1 0.00 0.00 0.00 47 1010.1
20260508123905 19 39 9.7 19.3 0.00 0.00 0.00 47 1010.2
20260508123405 19 52 8.0 22.5 0.00 0.00 0.00 47 1010.3
20260508122905 19 34 8.0 20.9 0.00 0.00 0.00 47 1010.3
20260508122405 19 88 4.8 20.9 0.00 0.00 0.00 47 1010.4
20260508121905 18 18 4.8 20.9 0.00 0.00 0.00 48 1010.5
20260508121405 18 65 6.4 19.3 0.00 0.00 0.00 48 1010.6
20260508120905 19 35 8.0 19.3 0.00 0.00 0.00 47 1010.7
20260508115905 19 73 11.3 19.3 0.00 0.00 0.00 46 1010.8
20260508115405 19 34 12.9 29.0 0.00 0.00 0.00 45 1010.8
20260508114904 20 38 11.3 32.2 0.00 0.00 0.00 46 1010.8
20260508114405 19 37 14.5 22.5 0.00 0.00 0.00 47 1010.9
20260508113905 19 30 14.5 24.1 0.00 0.00 0.00 48 1011.0
20260508113404 19 52 12.9 24.1 0.00 0.00 0.00 47 1011.1
20260508112905 20 71 3.2 25.7 0.00 0.00 0.00 47 1011.0
20260508112405 19 52 9.7 19.3 0.00 0.00 0.00 48 1011.1
20260508111904 19 45 11.3 19.3 0.00 0.00 0.00 48 1011.2
20260508111405 19 22 11.3 22.5 0.00 0.00 0.00 48 1011.3
20260508110905 20 21 6.4 19.3 0.00 0.00 0.00 47 1011.3
20260508110405 19 100 9.7 16.1 0.00 0.00 0.00 49 1011.3
20260508105905 18 71 4.8 19.3 0.00 0.00 0.00 52 1011.4
20260508104905 18 77 1.6 9.7 0.00 0.00 0.00 52 1011.4
20260508103905 17 40 8.0 20.9 0.00 0.00 0.00 54 1011.5
20260508102405 17 36 8.0 16.1 0.00 0.00 0.00 54 1011.7
20260508101905 17 69 3.2 12.9 0.00 0.00 0.00 57 1011.6
20260508101405 17 11 4.8 25.7 0.00 0.00 0.00 57 1011.6
20260508100905 17 41 11.3 19.3 0.00 0.00 0.00 56 1011.6
20260508100404 17 27 4.8 19.3 0.00 0.00 0.00 60 1011.6
20260508095905 17 31 3.2 16.1 0.00 0.00 0.00 60 1011.6
20260508095404 16 49 1.6 8.0 0.00 0.00 0.00 62 1011.7
20260508094405 16 41 1.6 9.7 0.00 0.00 0.00 67 1011.9
20260508093905 15 12 8.0 14.5 0.00 0.00 0.00 67 1012.0
20260508093405 15 76 6.4 14.5 0.00 0.00 0.00 68 1012.1
20260508092905 15 21 8.0 14.5 0.00 0.00 0.00 68 1012.0
20260508092405 15 51 4.8 16.1 0.00 0.00 0.00 69 1012.0
20260508091904 15 74 8.0 12.9 0.00 0.00 0.00 69 1012.0
20260508091405 14 84 8.0 14.5 0.00 0.00 0.00 69 1012.0
20260508090905 14 44 9.7 19.3 0.00 0.00 0.00 69 1012.0
20260508090405 14 32 6.4 16.1 0.00 0.00 0.00 69 1012.0
20260508085405 14 37 9.7 14.5 0.00 0.00 0.00 70 1011.9
20260508084904 14 40 8.0 12.9 0.00 0.00 0.00 71 1011.8
20260508084405 14 31 3.2 9.7 0.00 0.00 0.00 74 1011.8
20260508083904 14 13 4.8 9.7 0.00 0.00 0.00 75 1011.8
20260508082905 14 13 1.6 9.7 0.00 0.00 0.00 75 1011.6
20260508082405 13 13 3.2 8.0 0.00 0.00 0.00 76 1011.6
20260508081905 13 13 1.6 4.8 0.00 0.00 0.00 77 1011.6
20260508081404 13 13 0.0 3.2 0.00 0.00 0.00 78 1011.5
20260508080905 13 13 0.0 0.0 0.00 0.00 0.00 78 1011.5
20260508080405 13 13 0.0 1.6 0.00 0.00 0.00 78 1011.6
20260508075905 13 13 0.0 4.8 0.00 0.00 0.00 78 1011.5
20260508075405 13 13 0.0 0.0 0.00 0.00 0.00 78 1011.4
20260508074905 13 13 0.0 8.0 0.00 0.00 0.00 78 1011.5
20260508074404 13 13 1.6 4.8 0.00 0.00 0.00 79 1011.4
20260508073904 13 13 0.0 0.0 0.00 0.00 0.00 81 1011.4
20260508073405 12 13 0.0 3.2 0.00 0.00 0.00 80 1011.4
20260508072405 12 302 0.0 0.0 0.00 0.00 0.00 84 1011.2
20260508070905 12 302 1.6 4.8 0.00 0.00 0.00 85 1011.0
20260508070405 12 302 3.2 4.8 0.00 0.00 0.00 85 1011.1
20260508065905 12 302 3.2 4.8 0.00 0.00 0.00 85 1011.1
20260508065405 12 302 0.0 4.8 0.00 0.00 0.00 85 1011.1